Windom, MN

7:55 AM CDT on April 29, 2017 (GMT -0500)
Windom Municipal

Weather History for KMWM - April, 2012

Change the Weather History Date:

Saturday, April 21, 2012

  Actual Average Record
Temperature  
Mean Temperature 49 °F -  
Max Temperature 57 °F 61 °F 93 °F (1980)
Min Temperature 41 °F 36 °F 20 °F (1959)
Degree Days  
Heating Degree Days 16    
Moisture  
Dew Point 40 °F    
Average Humidity 78    
Maximum Humidity 100    
Minimum Humidity 62    
Precipitation  
Precipitation 0.16 in - - ()
Sea Level Pressure  
Sea Level Pressure 29.91 in    
Wind  
Wind Speed 10 mph (South)    
Max Wind Speed 22 mph    
Max Gust Speed 32 mph    
Visibility 10 miles    
Events Rain , Thunderstorm    
Averages and records for this station are not official NWS values.
T = Trace of Precipitation, MM = Missing Value Source: NWS Daily Summary

Daily Weather History Graph

Daily Weather History Graph

Search for Another Location

Airport or City:

Trip Planner

Search our weather history database for the weather conditions in past years. The results will help you decide how hot, cold, wet, or windy it might be!

Date:

Astronomy

Apr. 21, 2012 Rise Set
Actual Time 6:26 AM CDT 8:12 PM CDT
Civil Twilight 5:56 AM CDT 8:42 PM CDT
Nautical Twilight 5:18 AM CDT 9:20 PM CDT
Astronomical Twilight 4:38 AM CDT 10:00 PM CDT
Moon 6:21 AM CDT (4/21) 8:57 PM CDT (4/21)
Length of Visible Light 14h 46m
Length of Day
13h 45m
New Moon, 0% of the Moon is Illuminated
Apr 21
New Moon
Apr 29
First Quarter
May 5
Full
May 12
Last Quarter
May 20
New

Hourly Weather History & Observations

Time (CDT) Temp. Windchill Dew Point Humidity Pressure Visibility Wind Dir Wind Speed Gust Speed Precip Events Conditions
12:12 AM 42.8 °F 40.1 °F 35.6 °F 76% 30.00 in 10.0 mi South 4.6 mph - N/A   Scattered Clouds
12:33 AM 42.8 °F 39.3 °F 35.6 °F 76% 30.00 in 10.0 mi South 5.8 mph - N/A   Clear
12:52 AM 42.8 °F 39.3 °F 37.4 °F 81% 30.00 in 10.0 mi South 5.8 mph - N/A   Clear
1:12 AM 42.8 °F 40.1 °F 35.6 °F 76% 30.00 in 10.0 mi South 4.6 mph - N/A   Clear
1:32 AM 42.8 °F 40.1 °F 35.6 °F 76% 29.99 in 10.0 mi South 4.6 mph - N/A   Clear
1:52 AM 42.8 °F 40.1 °F 35.6 °F 76% 29.98 in 10.0 mi South 4.6 mph - N/A   Clear
2:12 AM 42.8 °F 38.6 °F 35.6 °F 76% 29.98 in 10.0 mi South 6.9 mph - N/A   Clear
2:33 AM 42.8 °F 38.6 °F 35.6 °F 76% 29.96 in 10.0 mi South 6.9 mph - N/A   Clear
2:52 AM 42.8 °F 38.6 °F 35.6 °F 76% 29.98 in 10.0 mi South 6.9 mph - N/A   Clear
3:12 AM 42.8 °F 38.6 °F 35.6 °F 76% 29.97 in 10.0 mi South 6.9 mph - N/A   Clear
3:32 AM 42.8 °F 40.1 °F 35.6 °F 76% 29.97 in 10.0 mi South 4.6 mph - N/A   Clear
3:52 AM 42.8 °F 39.3 °F 35.6 °F 76% 29.97 in 10.0 mi South 5.8 mph - N/A   Clear
4:12 AM 42.8 °F 38.0 °F 35.6 °F 76% 29.97 in 10.0 mi South 8.1 mph - N/A   Mostly Cloudy
4:33 AM 44.6 °F 39.7 °F 35.6 °F 71% 29.97 in 10.0 mi SSW 9.2 mph - N/A   Scattered Clouds
5:12 AM 42.8 °F 37.0 °F 35.6 °F 76% 29.97 in 10.0 mi SSW 10.4 mph - N/A   Mostly Cloudy
5:32 AM 44.6 °F 38.1 °F 35.6 °F 71% 29.96 in 10.0 mi South 13.8 mph - N/A   Mostly Cloudy
5:52 AM 44.6 °F 38.4 °F 35.6 °F 71% 29.94 in 10.0 mi South 12.7 mph - N/A   Mostly Cloudy
6:13 AM 44.6 °F 38.8 °F 35.6 °F 71% 29.94 in 10.0 mi South 11.5 mph - N/A   Mostly Cloudy
6:32 AM 42.8 °F 36.6 °F 35.6 °F 76% 29.93 in 10.0 mi South 11.5 mph 16.1 mph N/A   Mostly Cloudy
6:52 AM 42.8 °F 36.6 °F 37.4 °F 81% 29.93 in 10.0 mi South 11.5 mph 16.1 mph N/A Rain Light Rain
7:13 AM 42.8 °F 36.6 °F 37.4 °F 81% 29.94 in 10.0 mi SSW 11.5 mph - N/A Rain Light Rain
7:32 AM 42.8 °F 36.6 °F 39.2 °F 87% 29.94 in 10.0 mi South 11.5 mph - 0.01 in Rain Light Rain
7:52 AM 42.8 °F 36.6 °F 39.2 °F 87% 29.95 in 10.0 mi South 11.5 mph - 0.04 in Rain Rain
8:13 AM 42.8 °F 37.5 °F 39.2 °F 87% 29.95 in 10.0 mi South 9.2 mph - 0.01 in Rain Light Rain
8:52 AM 42.8 °F 36.2 °F 39.2 °F 87% 29.95 in 10.0 mi South 12.7 mph - 0.03 in Rain Rain
9:12 AM 42.8 °F 36.6 °F 39.2 °F 87% 29.95 in 7.0 mi South 11.5 mph - 0.02 in Rain Rain
9:32 AM 41.0 °F 33.9 °F 39.2 °F 93% 29.95 in 7.0 mi South 12.7 mph - 0.04 in Rain Light Rain
9:52 AM 41.0 °F 34.7 °F 41.0 °F 100% 29.95 in 7.0 mi South 10.4 mph - 0.07 in Rain Rain
10:33 AM 42.8 °F 36.2 °F 41.0 °F 93% 29.92 in 10.0 mi SSE 12.7 mph - 0.02 in Rain Light Rain
10:52 AM 42.8 °F 35.1 °F 41.0 °F 93% 29.91 in 10.0 mi SSE 16.1 mph 19.6 mph 0.02 in   Overcast
11:12 AM 42.8 °F 35.1 °F 41.0 °F 93% 29.91 in 10.0 mi SSE 16.1 mph 24.2 mph N/A   Overcast
11:32 AM 44.6 °F 36.4 °F 41.0 °F 87% 29.90 in 10.0 mi SSE 20.7 mph 27.6 mph N/A   Overcast
11:52 AM 44.6 °F 37.4 °F 41.0 °F 87% 29.90 in 10.0 mi SSE 16.1 mph 25.3 mph N/A   Overcast
12:12 PM 44.6 °F 36.6 °F 41.0 °F 87% 29.90 in 10.0 mi SSE 19.6 mph 25.3 mph N/A   Overcast
12:32 PM 44.6 °F 36.9 °F 39.2 °F 81% 29.89 in 10.0 mi SSE 18.4 mph 23.0 mph N/A   Overcast
12:52 PM 46.4 °F 39.8 °F 41.0 °F 81% 29.89 in 10.0 mi South 16.1 mph 24.2 mph N/A   Overcast
1:12 PM 48.2 °F - 41.0 °F 76% 29.88 in 10.0 mi South 18.4 mph 24.2 mph N/A   Overcast
1:32 PM 48.2 °F - 41.0 °F 76% 29.88 in 10.0 mi South 13.8 mph 27.6 mph N/A   Overcast
1:52 PM 51.8 °F - 42.8 °F 71% 29.87 in 10.0 mi South 18.4 mph 23.0 mph N/A   Overcast
2:12 PM 50.0 °F - 42.8 °F 76% 29.89 in 10.0 mi South 9.2 mph 24.2 mph N/A   Overcast
2:32 PM 50.0 °F - 41.0 °F 71% 29.88 in 10.0 mi ESE 4.6 mph - N/A   Overcast
2:52 PM 53.6 °F - 44.6 °F 72% 29.86 in 10.0 mi South 12.7 mph 18.4 mph N/A   Overcast
3:12 PM 53.6 °F - 44.6 °F 72% 29.84 in 10.0 mi SSE 15.0 mph 20.7 mph N/A   Mostly Cloudy
3:32 PM 53.6 °F - 44.6 °F 72% 29.83 in 10.0 mi SSE 13.8 mph 20.7 mph N/A   Mostly Cloudy
3:52 PM 53.6 °F - 44.6 °F 72% 29.82 in 10.0 mi South 9.2 mph - N/A Thunderstorm Unknown
4:13 PM 57.2 °F - 44.6 °F 63% 29.80 in 10.0 mi South 16.1 mph - N/A   Mostly Cloudy
4:32 PM 57.2 °F - 46.4 °F 67% 29.78 in 10.0 mi South 21.9 mph - N/A   Scattered Clouds
4:52 PM 53.6 °F - 46.4 °F 77% 29.80 in 10.0 mi South 10.4 mph - N/A   Mostly Cloudy
5:12 PM 53.6 °F - 44.6 °F 72% 29.82 in 10.0 mi East 9.2 mph - N/A   Overcast
5:32 PM 50.0 °F - 44.6 °F 82% 29.82 in 10.0 mi East 9.2 mph 20.7 mph N/A   Mostly Cloudy
5:53 PM 50.0 °F - 44.6 °F 82% 29.82 in 10.0 mi ESE 10.4 mph - N/A   Mostly Cloudy
6:12 PM 51.8 °F - 44.6 °F 76% 29.84 in 10.0 mi North 8.1 mph 16.1 mph N/A Rain Rain
6:32 PM 53.6 °F - 42.8 °F 67% 29.85 in 10.0 mi NNW 21.9 mph 29.9 mph N/A   Mostly Cloudy
6:53 PM 51.8 °F - 39.2 °F 62% 29.86 in 10.0 mi NNW 20.7 mph 32.2 mph N/A   Scattered Clouds
7:13 PM 51.8 °F - 39.2 °F 62% 29.87 in 10.0 mi NNW 18.4 mph 27.6 mph N/A   Mostly Cloudy
7:32 PM 50.0 °F - 41.0 °F 71% 29.87 in 10.0 mi NNW 13.8 mph - N/A   Overcast
7:52 PM 48.2 °F - 39.2 °F 71% 29.88 in 10.0 mi NW 15.0 mph - N/A   Overcast
8:13 PM 48.2 °F - 39.2 °F 71% 29.89 in 10.0 mi NW 16.1 mph 21.9 mph N/A   Overcast
8:32 PM 46.4 °F 40.1 °F 39.2 °F 76% 29.90 in 10.0 mi NNW 15.0 mph - N/A   Overcast
8:53 PM 46.4 °F 39.8 °F 39.2 °F 76% 29.91 in 10.0 mi NW 16.1 mph - N/A   Overcast
9:12 PM 46.4 °F 40.1 °F 39.2 °F 76% 29.92 in 10.0 mi NW 15.0 mph - N/A   Overcast
9:32 PM 46.4 °F 40.4 °F 39.2 °F 76% 29.92 in 10.0 mi NW 13.8 mph 21.9 mph N/A   Overcast
9:53 PM 46.4 °F 41.5 °F 41.0 °F 81% 29.93 in 10.0 mi NW 10.4 mph - N/A   Overcast
10:12 PM 46.4 °F 41.1 °F 39.2 °F 76% 29.93 in 10.0 mi WNW 11.5 mph 18.4 mph N/A   Overcast
10:32 PM 46.4 °F 39.2 °F 39.2 °F 76% 29.93 in 10.0 mi WNW 18.4 mph 21.9 mph N/A   Overcast
10:52 PM 44.6 °F 37.2 °F 39.2 °F 81% 29.94 in 10.0 mi NW 17.3 mph 24.2 mph N/A   Scattered Clouds
11:32 PM 42.8 °F 33.8 °F 39.2 °F 87% 29.96 in 10.0 mi NW 21.9 mph 32.2 mph N/A   Overcast
11:52 PM 42.8 °F 34.3 °F 41.0 °F 93% 29.96 in 10.0 mi NW 19.6 mph 26.5 mph N/A   Overcast